• In Hungary
  • List of Countries
  • For 7 days
  • Water Temperature
  • Satellite Maps
  • Weather Map
  • News
  • Weather Widgets
  • user-avatar
    Login

    Hourly Weather Cisze

    Today, 23 November, Thursday

    Time Temperature Precipitation Wind Pressure Humidity
    00:00 +4°C° 0 mm 3 mps 748 mmHg 92%
    01:00 +4°C° 0 mm 3 mps 748 mmHg 92%
    02:00 +4°C° 0 mm 3 mps 748 mmHg 92%
    03:00 +4°C° 0 mm 3 mps 748 mmHg 91%
    04:00 +3°C° 0 mm 3 mps 748 mmHg 91%
    05:00 +3°C° 0 mm 3 mps 748 mmHg 91%
    06:00 +3°C° 0 mm 3 mps 748 mmHg 91%
    07:00 +3°C° 0 mm 3 mps 748 mmHg 90%
    08:00 +4°C° 0 mm 4 mps 748 mmHg 85%
    09:00 +5°C° 0 mm 4 mps 748 mmHg 81%
    10:00 +6°C° 0 mm 4 mps 748 mmHg 76%
    11:00 +7°C° 0 mm 5 mps 747 mmHg 72%
    12:00 +8°C° 0 mm 5 mps 747 mmHg 68%
    13:00 +8°C° 0 mm 5 mps 747 mmHg 64%
    14:00 +8°C° 0 mm 5 mps 747 mmHg 65%
    15:00 +8°C° 0 mm 4 mps 747 mmHg 67%
    16:00 +7°C° 0 mm 4 mps 747 mmHg 69%
    17:00 +7°C° 0 mm 4 mps 747 mmHg 70%
    18:00 +7°C° 0 mm 4 mps 748 mmHg 70%
    19:00 +7°C° 0 mm 4 mps 748 mmHg 70%
    20:00 +7°C° 0 mm 4 mps 748 mmHg 72%
    21:00 +7°C° 0 mm 4 mps 748 mmHg 73%
    22:00 +7°C° 0 mm 4 mps 749 mmHg 74%
    23:00 +6°C° 0 mm 4 mps 749 mmHg 77%

    Tomorrow, 24 November, Friday

    Time Temperature Precipitation Wind Pressure Humidity
    00:00 +6°C° 0 mm 4 mps 749 mmHg 80%
    01:00 +6°C° 0 mm 4 mps 750 mmHg 83%
    02:00 +6°C° 0 mm 4 mps 750 mmHg 85%
    03:00 +7°C° 0 mm 3 mps 750 mmHg 87%
    04:00 +7°C° 0 mm 3 mps 750 mmHg 90%
    05:00 +7°C° 0 mm 3 mps 751 mmHg 91%
    06:00 +5°C° 0 mm 3 mps 751 mmHg 92%
    07:00 +5°C° 0 mm 3 mps 751 mmHg 93%
    08:00 +7°C° 0 mm 3 mps 751 mmHg 91%
    09:00 +6°C° 0 mm 4 mps 750 mmHg 88%
    10:00 +7°C° 0 mm 4 mps 750 mmHg 86%
    11:00 +8°C° 0 mm 5 mps 750 mmHg 82%
    12:00 +9°C° 0 mm 5 mps 749 mmHg 79%
    13:00 +10°C° 0 mm 5 mps 749 mmHg 75%
    14:00 +9°C° 0.1 mm 5 mps 749 mmHg 77%
    15:00 +9°C° 0.1 mm 5 mps 748 mmHg 78%
    16:00 +9°C° 0.1 mm 5 mps 748 mmHg 79%
    17:00 +9°C° 0.1 mm 5 mps 748 mmHg 78%
    18:00 +9°C° 0.1 mm 5 mps 748 mmHg 77%
    19:00 +9°C° 0.1 mm 6 mps 748 mmHg 76%
    20:00 +9°C° 0 mm 6 mps 748 mmHg 77%
    21:00 +9°C° 0 mm 5 mps 748 mmHg 78%
    22:00 +9°C° 0 mm 5 mps 749 mmHg 79%
    23:00 +8°C° 0 mm 5 mps 749 mmHg 80%

    Day after tomorrow, 25 November, Saturday

    Time Temperature Precipitation Wind Pressure Humidity
    00:00 +7°C° 0 mm 5 mps 750 mmHg 82%
    01:00 +7°C° 0 mm 4 mps 751 mmHg 83%
    02:00 +6°C° 0 mm 4 mps 751 mmHg 84%
    03:00 +5°C° 0 mm 3 mps 751 mmHg 84%
    04:00 +6°C° 0 mm 2 mps 751 mmHg 85%
    05:00 +5°C° 0.1 mm 2 mps 752 mmHg 85%
    06:00 +6°C° 0.1 mm 1 mps 752 mmHg 86%
    07:00 +6°C° 0.1 mm 1 mps 752 mmHg 86%
    08:00 +6°C° 0.3 mm 1 mps 752 mmHg 86%
    09:00 +6°C° 0.3 mm 1 mps 752 mmHg 86%
    10:00 +6°C° 0.3 mm 1 mps 752 mmHg 86%
    11:00 +6°C° 0.8 mm 1 mps 751 mmHg 85%
    12:00 +5°C° 0.8 mm 2 mps 751 mmHg 85%
    13:00 +5°C° 0.8 mm 2 mps 750 mmHg 84%
    14:00 +4°C° 1.1 mm 3 mps 750 mmHg 83%
    15:00 +4°C° 1.1 mm 3 mps 750 mmHg 82%
    16:00 +3°C° 1.1 mm 4 mps 750 mmHg 82%
    17:00 +3°C° 0.9 mm 4 mps 749 mmHg 81%
    18:00 +2°C° 0.9 mm 5 mps 749 mmHg 81%
    19:00 +2°C° 0.9 mm 5 mps 749 mmHg 80%
    20:00 +2°C° 0.3 mm 5 mps 749 mmHg 81%
    21:00 +3°C° 0.3 mm 4 mps 749 mmHg 81%
    22:00 +1°C° 0.3 mm 4 mps 749 mmHg 82%
    23:00 +1°C° 0.1 mm 4 mps 749 mmHg 82%

    26 November, Sunday

    Time Temperature Precipitation Wind Pressure Humidity
    00:00 +1°C° 0.1 mm 4 mps 750 mmHg 83%
    01:00 +1°C° 0.1 mm 4 mps 750 mmHg 83%
    02:00 +1°C° 0 mm 4 mps 750 mmHg 85%
    03:00 +1°C° 0 mm 4 mps 751 mmHg 86%
    04:00 +2°C° 0 mm 3 mps 751 mmHg 88%
    05:00 +1°C° 0 mm 3 mps 751 mmHg 87%
    06:00 +1°C° 0 mm 3 mps 752 mmHg 87%
    07:00 +1°C° 0 mm 3 mps 752 mmHg 87%
    08:00 +1°C° 0 mm 3 mps 753 mmHg 84%
    09:00 +1°C° 0 mm 4 mps 753 mmHg 82%
    10:00 +1°C° 0 mm 4 mps 753 mmHg 79%
    11:00 +1°C° 0 mm 4 mps 754 mmHg 77%
    12:00 +2°C° 0 mm 5 mps 754 mmHg 74%
    13:00 +2°C° 0 mm 5 mps 754 mmHg 71%
    14:00 +3°C° 0 mm 4 mps 754 mmHg 74%
    15:00 +1°C° 0 mm 4 mps 754 mmHg 77%
    16:00 0°C° 0 mm 4 mps 754 mmHg 80%
    17:00 0°C° 0 mm 4 mps 754 mmHg 81%
    18:00 0°C° 0 mm 4 mps 754 mmHg 81%
    19:00 0°C° 0 mm 5 mps 754 mmHg 81%
    20:00 0°C° 0.1 mm 5 mps 754 mmHg 82%
    21:00 0°C° 0.1 mm 5 mps 754 mmHg 82%
    22:00 0°C° 0.1 mm 5 mps 754 mmHg 82%
    23:00 0°C° 0.1 mm 5 mps 754 mmHg 82%

    27 November, Monday

    Time Temperature Precipitation Wind Pressure Humidity
    00:00 0°C° 0.1 mm 5 mps 753 mmHg 82%
    01:00 +1°C° 0.1 mm 6 mps 753 mmHg 82%
    02:00 +1°C° 0.1 mm 6 mps 753 mmHg 82%
    03:00 +1°C° 0.1 mm 6 mps 753 mmHg 82%
    04:00 +1°C° 0.1 mm 6 mps 753 mmHg 83%
    05:00 +1°C° 0 mm 6 mps 753 mmHg 83%
    06:00 +1°C° 0 mm 6 mps 753 mmHg 83%
    07:00 +1°C° 0 mm 5 mps 753 mmHg 84%
    08:00 +1°C° 0 mm 6 mps 753 mmHg 83%
    09:00 +1°C° 0 mm 6 mps 754 mmHg 82%
    10:00 +1°C° 0 mm 6 mps 754 mmHg 81%
    11:00 +2°C° 0 mm 6 mps 754 mmHg 80%
    12:00 +2°C° 0 mm 6 mps 754 mmHg 78%
    13:00 +2°C° 0 mm 6 mps 753 mmHg 77%
    14:00 +2°C° 0 mm 5 mps 753 mmHg 78%
    15:00 +2°C° 0 mm 5 mps 753 mmHg 78%
    16:00 +1°C° 0 mm 4 mps 753 mmHg 79%
    17:00 +1°C° 0 mm 4 mps 753 mmHg 80%
    18:00 +1°C° 0 mm 4 mps 753 mmHg 80%
    19:00 +1°C° 0 mm 4 mps 753 mmHg 81%
    20:00 +1°C° 0 mm 4 mps 753 mmHg 83%
    21:00 +1°C° 0 mm 4 mps 752 mmHg 84%
    22:00 +1°C° 0 mm 4 mps 752 mmHg 85%
    23:00 0°C° 0 mm 4 mps 751 mmHg 84%

    28 November, Tuesday

    Time Temperature Precipitation Wind Pressure Humidity
    00:00 0°C° 0 mm 5 mps 751 mmHg 84%
    01:00 0°C° 0 mm 5 mps 750 mmHg 83%
    02:00 0°C° 0.1 mm 5 mps 750 mmHg 83%
    03:00 0°C° 0.1 mm 5 mps 749 mmHg 83%
    04:00 0°C° 0.1 mm 5 mps 748 mmHg 83%
    05:00 0°C° 0.2 mm 5 mps 748 mmHg 84%
    06:00 +1°C° 0.2 mm 5 mps 748 mmHg 85%
    07:00 +1°C° 0.2 mm 5 mps 747 mmHg 86%
    08:00 +1°C° 0.2 mm 5 mps 747 mmHg 86%
    09:00 +1°C° 0.2 mm 5 mps 747 mmHg 87%
    10:00 +2°C° 0.2 mm 5 mps 747 mmHg 87%
    11:00 +2°C° 0.3 mm 5 mps 746 mmHg 85%
    12:00 +2°C° 0.3 mm 5 mps 746 mmHg 84%
    13:00 +3°C° 0.3 mm 5 mps 745 mmHg 83%
    14:00 +3°C° 0.1 mm 5 mps 745 mmHg 83%
    15:00 +3°C° 0.1 mm 5 mps 745 mmHg 83%
    16:00 +2°C° 0.1 mm 5 mps 745 mmHg 83%
    17:00 +2°C° 0 mm 5 mps 745 mmHg 85%
    18:00 +3°C° 0 mm 4 mps 745 mmHg 86%
    19:00 +1°C° 0 mm 4 mps 745 mmHg 87%
    20:00 +1°C° 0 mm 4 mps 745 mmHg 88%
    21:00 +1°C° 0 mm 4 mps 744 mmHg 89%
    22:00 0°C° 0 mm 4 mps 744 mmHg 89%
    23:00 +1°C° 0.2 mm 4 mps 744 mmHg 88%
    Show more